Location: Broekland
(52.3610°N, 6.2005°E)
Time: 01:25:13
(UTC+00:00)

Cosmos 1805 - Pass Details

Date: 19 May 2025
Orbit: 448 x 452 km, 82.5° (Epoch: 23 June)

Event Time Altitude Azimuth Distance (km) Brightness Sun altitude
Rises 20:45:33 0° 358° (N) 2,471 7.6 -9.2°
Reaches altitude 10° 20:47:53 10° 12° (NNE) 1,592 6.3 -9.4°
Maximum altitude 20:50:49 25° 70° (ENE) 950 4.4 -9.7°
Enters shadow 20:53:12 13° 122° (ESE) 1,402 4.8 -9.9°
